Flag for Canada Weather past 2 weeks in Labrador City, Newfoundland and Labrador, Canada

Now
7 °F

Scattered showers. Partly sunny.


Feels Like: -7 °F
Forecast: -28 / 4 °F
Wind: 9 mph from West

Location: Wabush Lake

Current Time: Feb 28, 2015 at 4:28:42 PM

Latest Report: Feb 28, 2015 at 4:00 PM


Visibility: 10 mi

Pressure: 30.16 "Hg

Humidity: 61%

Dew point: -4 °F

Location of Labrador CityLocation

Historic Weather in Labrador City — Graph

°F

Labrador City temperature yesterday

Maximum temperature yesterday: -11 °F (at 1:00 PM)
Minimum temperature yesterday: -27 °F (at 6:00 AM)
Average temperature yesterday: -17 °F

Past Weeks' High & Low Weather Summary

 TemperatureHumidityPressure
High7 °F (Feb 19, 4:00 PM)85% (Feb 19, 6:00 PM)30.20 "Hg (Feb 19, 6:00 PM)
Low-33 °F (Feb 28, 7:00 AM)45% (Feb 17, 4:00 PM)29.32 "Hg (Feb 20, 3:00 PM)
Average-11 °F71%29.88 "Hg
* Reported Feb 13 3:00 PM — Feb 28 3:00 PM, Labrador City, Weather by CustomWeather, © 2015

Note: Actual official high and low records may vary slightly from our data, if they occured in-between our weather recording intervals... More about our weather records

Advertising

Labrador City weather history for previous 24 hours

 ConditionsComfort  
Time TempWeatherWind HumidityBarometerVisibility
3:00 PM
Sat, Feb 28
5 °FSnow flurries. Broken clouds.9 mph66%30.15 "Hg10 mi
2:00 PM5 °FBroken clouds.13 mph60%30.14 "Hg12 mi
1:00 PM3 °FBroken clouds.16 mph60%30.16 "Hg15 mi
12:00 PM1 °FScattered clouds.12 mph60%30.15 "Hg15 mi
11:00 AM-4 °FScattered clouds.8 mph71%30.16 "Hg15 mi
10:00 AM-9 °FPassing clouds.6 mph77%30.16 "Hg15 mi
9:00 AM-22 °FPassing clouds.No wind75%30.17 "Hg15 mi
8:00 AM-31 °FPassing clouds.6 mph74%30.17 "Hg15 mi
7:00 AM-33 °FClear.5 mph66%30.15 "Hg15 mi
6:00 AM-29 °FClear.2 mph74%30.13 "Hg15 mi
5:00 AM-31 °FClear.3 mph74%30.12 "Hg9 mi
4:03 AM-27 °FPassing clouds.5 mph67%30.11 "Hg5 mi
3:00 AM-27 °FClear.5 mph74%30.10 "Hg9 mi
2:00 AM-24 °FClear.5 mph82%30.09 "Hg9 mi
1:00 AM-22 °FPassing clouds.2 mph75%30.08 "Hg9 mi
12:00 AM-17 °FPassing clouds.7 mph69%30.06 "Hg9 mi
11:00 PM
Fri, Feb 27
-17 °FClear.3 mph69%30.05 "Hg4 mi
10:54 PM-17 °FClear.3 mph69%30.06 "Hg5 mi
10:00 PM-15 °FSnow flurries. Passing clouds.6 mph69%30.04 "Hg10 mi
9:00 PM-13 °FSnow flurries. Passing clouds.10 mph69%30.02 "Hg6 mi
8:00 PM-13 °FSnow flurries. Passing clouds.9 mph63%30.02 "Hg12 mi
7:00 PM-11 °FSnow flurries. Overcast.10 mph58%29.99 "Hg6 mi
6:00 PM-11 °FSnow flurries. Overcast.12 mph70%29.97 "Hg2 mi
5:00 PM-11 °FSnow flurries. Overcast.14 mph70%29.95 "Hg4 mi
4:00 PM-11 °FSnow flurries. Overcast.15 mph63%29.93 "Hg4 mi
Weather by CustomWeather, © 2015

See weather overviewHow to use our weather pages